Weather History for PAFE - March, 2013

Change the Weather History Date:

Saturday, March 9, 2013

  Actual Average Record
Temperature  
Mean Temperature 35 °F -  
Max Temperature 37 °F 35 °F 44 °F (2005)
Min Temperature 33 °F 27 °F 5 °F (2003)
Degree Days  
Heating Degree Days 30    
Moisture  
Dew Point 32 °F    
Average Humidity 86    
Maximum Humidity 93    
Minimum Humidity 81    
Precipitation  
Precipitation 0.46 in - - ()
Sea Level Pressure  
Sea Level Pressure 30.11 in    
Wind  
Wind Speed 8 mph (ESE)    
Max Wind Speed 12 mph    
Max Gust Speed -    
Visibility 10 miles    
Events      
Averages and records for this station are not official NWS values.
T = Trace of Precipitation, MM = Missing Value Source: NWS Daily Summary

Daily Weather History Graph

Daily Weather History Graph

Search for Another Location

Airport or City:

Trip Planner

Search our weather history database for the weather conditions in past years. The results will help you decide how hot, cold, wet, or windy it might be!

Date:

Astronomy

Mar. 09, 2013 Rise Set
Actual Time 6:26 AM AKST 5:46 PM AKST
Civil Twilight 5:48 AM AKST 6:24 PM AKST
Nautical Twilight 5:04 AM AKST 7:09 PM AKST
Astronomical Twilight 4:18 AM AKST 7:55 PM AKST
Moon 5:13 AM AKST (3/9) 3:43 PM AKST (3/9)
Length of Visible Light 12h 36m
Length of Day
11h 20m
Waning Crescent, 5% of the Moon is Illuminated
Mar 9
Waning Crescent
Mar 11
New
Mar 19
First Quarter
Mar 27
Full
Apr 2
Last Quarter

Hourly Weather History & Observations

Time (AKST) Temp. Windchill Dew Point Humidity Pressure Visibility Wind Dir Wind Speed Gust Speed Precip Events Conditions
12:16 AM 37.4 °F 31.4 °F 33.8 °F 87% 30.17 in 8.0 mi ESE 8.1 mph - 0.01 in   Overcast
12:36 AM 37.4 °F 30.8 °F 33.8 °F 87% 30.17 in 10.0 mi East 9.2 mph - 0.02 in   Overcast
12:56 AM 37.4 °F 32.1 °F 33.8 °F 87% 30.17 in 10.0 mi East 6.9 mph - 0.03 in   Overcast
1:16 AM 37.4 °F 32.1 °F 33.8 °F 87% 30.17 in 9.0 mi East 6.9 mph - N/A   Overcast
1:36 AM 37.4 °F 32.1 °F 33.8 °F 87% 30.17 in 10.0 mi East 6.9 mph - 0.01 in   Overcast
1:56 AM 37.4 °F 32.1 °F 33.8 °F 87% 30.17 in 10.0 mi East 6.9 mph - 0.01 in   Overcast
2:16 AM 35.6 °F 29.2 °F 32.0 °F 87% 30.16 in 10.0 mi East 8.1 mph - 0.01 in   Overcast
2:36 AM 37.4 °F 32.1 °F 33.8 °F 87% 30.16 in 10.0 mi ESE 6.9 mph - 0.02 in   Overcast
2:56 AM 37.4 °F 31.4 °F 32.0 °F 81% 30.16 in 10.0 mi ESE 8.1 mph - 0.03 in   Overcast
3:16 AM 37.4 °F 32.8 °F 32.0 °F 81% 30.16 in 10.0 mi East 5.8 mph - 0.01 in   Overcast
3:36 AM 35.6 °F 29.9 °F 32.0 °F 87% 30.15 in 10.0 mi East 6.9 mph - 0.02 in   Overcast
3:56 AM 35.6 °F 29.9 °F 32.0 °F 87% 30.15 in 10.0 mi East 6.9 mph - 0.02 in   Overcast
4:16 AM 35.6 °F 30.7 °F 32.0 °F 87% 30.14 in 10.0 mi East 5.8 mph - 0.01 in   Overcast
4:36 AM 37.4 °F 31.4 °F 33.8 °F 87% 30.14 in 10.0 mi ESE 8.1 mph - 0.01 in   Overcast
4:56 AM 37.4 °F 31.4 °F 33.8 °F 87% 30.14 in 10.0 mi ESE 8.1 mph - 0.02 in   Overcast
5:16 AM 37.4 °F 32.1 °F 33.8 °F 87% 30.14 in 10.0 mi ESE 6.9 mph - 0.01 in   Overcast
5:36 AM 35.6 °F 29.9 °F 32.0 °F 87% 30.13 in 10.0 mi East 6.9 mph - 0.02 in   Overcast
5:56 AM 35.6 °F 28.6 °F 32.0 °F 87% 30.13 in 10.0 mi East 9.2 mph - 0.02 in   Overcast
6:16 AM 35.6 °F 28.0 °F 32.0 °F 87% 30.13 in 10.0 mi East 10.4 mph - 0.01 in   Overcast
6:36 AM 35.6 °F 29.2 °F 32.0 °F 87% 30.12 in 10.0 mi East 8.1 mph - 0.02 in   Overcast
6:56 AM 35.6 °F 28.6 °F 32.0 °F 87% 30.12 in 8.0 mi ESE 9.2 mph - 0.03 in   Overcast
7:16 AM 35.6 °F 28.6 °F 32.0 °F 87% 30.11 in 9.0 mi ESE 9.2 mph - 0.01 in   Overcast
7:36 AM 35.6 °F 29.2 °F 32.0 °F 87% 30.11 in 10.0 mi East 8.1 mph - 0.01 in   Overcast
7:56 AM 35.6 °F 28.0 °F 32.0 °F 87% 30.10 in 10.0 mi East 10.4 mph - 0.02 in   Overcast
8:16 AM 35.6 °F 28.0 °F 33.8 °F 93% 30.10 in 10.0 mi ESE 10.4 mph - 0.01 in   Overcast
8:36 AM 35.6 °F 27.5 °F 32.0 °F 87% 30.09 in 10.0 mi ESE 11.5 mph - 0.01 in   Overcast
8:56 AM 35.6 °F 28.0 °F 32.0 °F 87% 30.09 in 10.0 mi East 10.4 mph - 0.02 in   Overcast
9:16 AM 37.4 °F 30.8 °F 32.0 °F 81% 30.09 in 9.0 mi ESE 9.2 mph - 0.01 in   Mostly Cloudy
9:36 AM 35.6 °F 29.2 °F 32.0 °F 87% 30.08 in 7.0 mi ESE 8.1 mph - 0.03 in   Overcast
9:56 AM 35.6 °F 29.2 °F 33.8 °F 93% 30.08 in 5.0 mi ESE 8.1 mph - 0.04 in   Overcast
10:16 AM 37.4 °F 32.1 °F 33.8 °F 87% 30.07 in 7.0 mi East 6.9 mph - 0.01 in   Overcast
10:36 AM 37.4 °F 30.8 °F 33.8 °F 87% 30.07 in 9.0 mi East 9.2 mph - 0.02 in   Overcast
10:56 AM 37.4 °F 30.8 °F 33.8 °F 87% 30.06 in 9.0 mi ESE 9.2 mph - 0.03 in   Overcast
11:36 AM 37.4 °F 31.4 °F 33.8 °F 87% 30.06 in 8.0 mi ESE 8.1 mph - 0.02 in   Overcast
11:56 AM 37.4 °F 33.8 °F 33.8 °F 87% 30.05 in 8.0 mi ESE 4.6 mph - 0.02 in   Overcast
12:16 PM 37.4 °F 31.4 °F 33.8 °F 87% 30.04 in 9.0 mi SE 8.1 mph - 0.01 in   Overcast
12:36 PM 37.4 °F 33.8 °F 33.8 °F 87% 30.04 in 9.0 mi ESE 4.6 mph - 0.02 in   Overcast
12:56 PM 37.4 °F 30.3 °F 33.8 °F 87% 30.03 in 10.0 mi SE 10.4 mph - 0.02 in   Overcast
1:16 PM 37.4 °F 30.8 °F 33.8 °F 87% 30.03 in 10.0 mi SE 9.2 mph - 0.01 in   Overcast
1:36 PM 37.4 °F 29.8 °F 33.8 °F 87% 30.02 in 10.0 mi SE 11.5 mph - 0.03 in   Overcast
1:56 PM 37.4 °F 31.4 °F 33.8 °F 87% 30.02 in 10.0 mi SE 8.1 mph - 0.04 in   Overcast
2:16 PM 37.4 °F 30.8 °F 33.8 °F 87% 30.02 in 10.0 mi SE 9.2 mph - 0.02 in   Overcast
2:36 PM 37.4 °F 33.8 °F 33.8 °F 87% 30.02 in 10.0 mi SSE 4.6 mph - 0.04 in   Overcast
2:56 PM 35.6 °F 29.9 °F 32.0 °F 87% 30.02 in 10.0 mi SSE 6.9 mph - 0.06 in   Overcast
3:16 PM 35.6 °F 29.2 °F 32.0 °F 87% 30.02 in 10.0 mi SSE 8.1 mph - 0.02 in   Overcast
3:36 PM 33.8 °F 27.7 °F 30.2 °F 87% 30.02 in 5.0 mi ESE 6.9 mph - 0.04 in   Overcast
3:56 PM 33.8 °F 27.7 °F 30.2 °F 87% 30.01 in 10.0 mi ESE 6.9 mph - 0.05 in   Mostly Cloudy
4:16 PM 33.8 °F 27.7 °F 30.2 °F 87% 30.02 in 10.0 mi ESE 6.9 mph - N/A   Overcast
4:36 PM 35.6 °F 29.9 °F 30.2 °F 81% 30.02 in 10.0 mi ESE 6.9 mph - N/A   Mostly Cloudy
4:56 PM 33.8 °F 27.0 °F 30.2 °F 87% 30.02 in 10.0 mi SE 8.1 mph - N/A   Scattered Clouds
5:16 PM 35.6 °F 29.2 °F 30.2 °F 81% 30.03 in 10.0 mi SE 8.1 mph - N/A   Mostly Cloudy
5:36 PM 35.6 °F 29.2 °F 30.2 °F 81% 30.04 in 10.0 mi SE 8.1 mph - N/A   Overcast
5:56 PM 35.6 °F 28.0 °F 30.2 °F 81% 30.05 in 10.0 mi SE 10.4 mph - N/A   Overcast
6:16 PM 35.6 °F 27.5 °F 32.0 °F 87% 30.06 in 10.0 mi SE 11.5 mph - N/A   Overcast
6:36 PM 35.6 °F 29.9 °F 30.2 °F 81% 30.08 in 10.0 mi SE 6.9 mph - N/A   Overcast
6:56 PM 35.6 °F 29.2 °F 32.0 °F 87% 30.09 in 10.0 mi SE 8.1 mph - N/A   Overcast
7:16 PM 35.6 °F 28.6 °F 32.0 °F 87% 30.11 in 10.0 mi SE 9.2 mph - N/A   Overcast
7:36 PM 35.6 °F 29.2 °F 32.0 °F 87% 30.13 in 10.0 mi SSE 8.1 mph - N/A   Overcast
7:56 PM 35.6 °F 31.7 °F 32.0 °F 87% 30.14 in 10.0 mi SSE 4.6 mph - N/A   Overcast
8:16 PM 35.6 °F 31.7 °F 32.0 °F 87% 30.16 in 10.0 mi SE 4.6 mph - N/A   Overcast
8:36 PM 35.6 °F 30.7 °F 32.0 °F 87% 30.17 in 10.0 mi SE 5.8 mph - N/A   Overcast
8:56 PM 35.6 °F 30.7 °F 32.0 °F 87% 30.19 in 10.0 mi SE 5.8 mph - N/A   Overcast
9:16 PM 35.6 °F 29.9 °F 32.0 °F 87% 30.20 in 10.0 mi SE 6.9 mph - N/A   Overcast
9:36 PM 35.6 °F 31.7 °F 30.2 °F 81% 30.21 in 10.0 mi SE 4.6 mph - N/A   Mostly Cloudy
9:56 PM 35.6 °F 28.6 °F 32.0 °F 87% 30.22 in 10.0 mi SSE 9.2 mph - N/A   Mostly Cloudy
10:16 PM 35.6 °F 29.2 °F 32.0 °F 87% 30.23 in 10.0 mi SSE 8.1 mph - N/A   Overcast
10:36 PM 35.6 °F 29.9 °F 30.2 °F 81% 30.24 in 10.0 mi SE 6.9 mph - N/A   Scattered Clouds
10:56 PM 35.6 °F 28.6 °F 30.2 °F 81% 30.24 in 10.0 mi SE 9.2 mph - N/A   Partly Cloudy
11:16 PM 35.6 °F 29.2 °F 30.2 °F 81% 30.26 in 10.0 mi SSE 8.1 mph - N/A   Mostly Cloudy
11:36 PM 35.6 °F 29.2 °F 30.2 °F 81% 30.27 in 10.0 mi SSE 8.1 mph - N/A   Mostly Cloudy
11:56 PM 35.6 °F 29.2 °F 30.2 °F 81% 30.27 in 10.0 mi SE 8.1 mph - N/A   Overcast